• Em Portugal
  • Lista de países
  • Para 7 dias
  • Temperatura da água
  • Mapas de satélite
  • Mapa do tempo
  • Widgets de tempo
  • user-avatar
    Iniciar Sessão

    Previsão horária em Brugia

    Hoje, 18 Outubro, Quinta-feira

    Tempo Temperatura Precipitação Vento Pressão Humidade
    00:00 +12°C° 0 mm 3 m/s 766 mmHg 87%
    01:00 +12°C° 0 mm 4 m/s 766 mmHg 89%
    02:00 +12°C° 0 mm 4 m/s 766 mmHg 90%
    03:00 +12°C° 0 mm 4 m/s 766 mmHg 91%
    04:00 +12°C° 0 mm 4 m/s 766 mmHg 91%
    05:00 +12°C° 0 mm 4 m/s 766 mmHg 92%
    06:00 +12°C° 0 mm 4 m/s 766 mmHg 92%
    07:00 +13°C° 0 mm 5 m/s 767 mmHg 88%
    08:00 +14°C° 0 mm 5 m/s 767 mmHg 84%
    09:00 +15°C° 0 mm 5 m/s 767 mmHg 80%
    10:00 +15°C° 0 mm 6 m/s 767 mmHg 76%
    11:00 +16°C° 0 mm 6 m/s 767 mmHg 72%
    12:00 +17°C° 0 mm 6 m/s 767 mmHg 68%
    13:00 +17°C° 0 mm 6 m/s 767 mmHg 68%
    14:00 +16°C° 0 mm 6 m/s 767 mmHg 68%
    15:00 +16°C° 0 mm 6 m/s 767 mmHg 67%
    16:00 +15°C° 0 mm 6 m/s 767 mmHg 71%
    17:00 +14°C° 0 mm 5 m/s 767 mmHg 75%
    18:00 +13°C° 0 mm 5 m/s 767 mmHg 79%
    19:00 +12°C° 0 mm 5 m/s 767 mmHg 80%
    20:00 +12°C° 0 mm 5 m/s 767 mmHg 82%
    21:00 +12°C° 0 mm 4 m/s 768 mmHg 83%
    22:00 +11°C° 0 mm 4 m/s 768 mmHg 84%
    23:00 +11°C° 0 mm 4 m/s 768 mmHg 86%

    Amanhã, 19 Outubro, Sexta-feira

    Tempo Temperatura Precipitação Vento Pressão Humidade
    00:00 +10°C° 0 mm 4 m/s 768 mmHg 88%
    01:00 +10°C° 0 mm 4 m/s 768 mmHg 89%
    02:00 +10°C° 0 mm 4 m/s 768 mmHg 91%
    03:00 +8°C° 0 mm 4 m/s 768 mmHg 93%
    04:00 +8°C° 0 mm 4 m/s 768 mmHg 93%
    05:00 +8°C° 0 mm 4 m/s 768 mmHg 93%
    06:00 +7°C° 0 mm 4 m/s 768 mmHg 94%
    07:00 +10°C° 0 mm 4 m/s 768 mmHg 89%
    08:00 +11°C° 0 mm 4 m/s 768 mmHg 85%
    09:00 +12°C° 0 mm 3 m/s 768 mmHg 80%
    10:00 +13°C° 0 mm 3 m/s 768 mmHg 75%
    11:00 +16°C° 0 mm 3 m/s 768 mmHg 70%
    12:00 +17°C° 0 mm 3 m/s 768 mmHg 65%
    13:00 +17°C° 0 mm 3 m/s 768 mmHg 65%
    14:00 +17°C° 0 mm 3 m/s 768 mmHg 65%
    15:00 +17°C° 0 mm 4 m/s 768 mmHg 65%
    16:00 +15°C° 0 mm 4 m/s 768 mmHg 69%
    17:00 +13°C° 0 mm 4 m/s 769 mmHg 74%
    18:00 +12°C° 0 mm 4 m/s 769 mmHg 78%
    19:00 +12°C° 0 mm 3 m/s 769 mmHg 78%
    20:00 +11°C° 0 mm 3 m/s 770 mmHg 78%
    21:00 +11°C° 0 mm 3 m/s 770 mmHg 78%
    22:00 +10°C° 0 mm 3 m/s 770 mmHg 77%
    23:00 +10°C° 0 mm 3 m/s 770 mmHg 77%

    Depois de amanhã, 20 Outubro, Sábado

    Tempo Temperatura Precipitação Vento Pressão Humidade
    00:00 +9°C° 0 mm 3 m/s 771 mmHg 77%
    01:00 +9°C° 0 mm 2 m/s 771 mmHg 78%
    02:00 +8°C° 0 mm 2 m/s 771 mmHg 78%
    03:00 +8°C° 0 mm 2 m/s 771 mmHg 79%
    04:00 +8°C° 0 mm 2 m/s 771 mmHg 80%
    05:00 +8°C° 0 mm 2 m/s 772 mmHg 80%
    06:00 +7°C° 0 mm 2 m/s 772 mmHg 81%
    07:00 +9°C° 0 mm 3 m/s 772 mmHg 76%
    08:00 +10°C° 0 mm 3 m/s 773 mmHg 70%
    09:00 +11°C° 0 mm 3 m/s 773 mmHg 65%
    10:00 +13°C° 0 mm 3 m/s 773 mmHg 60%
    11:00 +14°C° 0 mm 3 m/s 773 mmHg 55%
    12:00 +16°C° 0 mm 3 m/s 773 mmHg 49%
    13:00 +16°C° 0 mm 2 m/s 773 mmHg 50%
    14:00 +16°C° 0 mm 2 m/s 773 mmHg 50%
    15:00 +17°C° 0 mm 2 m/s 773 mmHg 50%
    16:00 +15°C° 0 mm 2 m/s 773 mmHg 54%
    17:00 +13°C° 0 mm 2 m/s 773 mmHg 58%
    18:00 +12°C° 0 mm 2 m/s 773 mmHg 62%
    19:00 +10°C° 0 mm 2 m/s 773 mmHg 64%
    20:00 +10°C° 0 mm 2 m/s 773 mmHg 65%
    21:00 +9°C° 0 mm 2 m/s 773 mmHg 67%
    22:00 +9°C° 0 mm 2 m/s 773 mmHg 68%
    23:00 +9°C° 0 mm 2 m/s 773 mmHg 69%

    21 Outubro, Domingo

    Tempo Temperatura Precipitação Vento Pressão Humidade
    00:00 +8°C° 0 mm 2 m/s 773 mmHg 70%
    01:00 +8°C° 0 mm 2 m/s 773 mmHg 71%
    02:00 +8°C° 0 mm 2 m/s 772 mmHg 71%
    03:00 +7°C° 0 mm 2 m/s 772 mmHg 72%
    04:00 +7°C° 0 mm 2 m/s 772 mmHg 73%
    05:00 +7°C° 0 mm 2 m/s 772 mmHg 74%
    06:00 +7°C° 0 mm 2 m/s 772 mmHg 75%
    07:00 +8°C° 0 mm 2 m/s 772 mmHg 70%
    08:00 +10°C° 0 mm 2 m/s 772 mmHg 65%
    09:00 +12°C° 0 mm 2 m/s 771 mmHg 60%
    10:00 +14°C° 0 mm 1 m/s 771 mmHg 56%
    11:00 +15°C° 0 mm 1 m/s 771 mmHg 51%
    12:00 +18°C° 0 mm 1 m/s 771 mmHg 46%
    13:00 +18°C° 0 mm 1 m/s 771 mmHg 47%
    14:00 +18°C° 0 mm 1 m/s 770 mmHg 47%
    15:00 +18°C° 0 mm 1 m/s 770 mmHg 48%
    16:00 +16°C° 0 mm 1 m/s 770 mmHg 53%
    17:00 +14°C° 0 mm 1 m/s 770 mmHg 58%
    18:00 +12°C° 0 mm 1 m/s 770 mmHg 64%
    19:00 +12°C° 0 mm 2 m/s 771 mmHg 66%
    20:00 +12°C° 0 mm 2 m/s 771 mmHg 68%
    21:00 +10°C° 0 mm 2 m/s 771 mmHg 71%
    22:00 +10°C° 0 mm 3 m/s 771 mmHg 74%
    23:00 +10°C° 0 mm 3 m/s 772 mmHg 77%

    22 Outubro, Segunda-feira

    Tempo Temperatura Precipitação Vento Pressão Humidade
    00:00 +10°C° 0 mm 4 m/s 772 mmHg 81%
    01:00 +10°C° 0.1 mm 5 m/s 772 mmHg 84%
    02:00 +11°C° 0.1 mm 6 m/s 772 mmHg 87%
    03:00 +12°C° 0.1 mm 7 m/s 773 mmHg 90%
    04:00 +11°C° 0 mm 7 m/s 773 mmHg 88%
    05:00 +11°C° 0 mm 7 m/s 773 mmHg 87%
    06:00 +11°C° 0 mm 7 m/s 774 mmHg 86%
    07:00 +12°C° 0 mm 7 m/s 774 mmHg 82%
    08:00 +12°C° 0 mm 7 m/s 775 mmHg 78%
    09:00 +12°C° 0 mm 7 m/s 775 mmHg 74%
    10:00 +14°C° 0 mm 6 m/s 775 mmHg 71%
    11:00 +14°C° 0 mm 6 m/s 775 mmHg 67%
    12:00 +15°C° 0 mm 5 m/s 775 mmHg 64%
    13:00 +14°C° 0 mm 5 m/s 775 mmHg 64%
    14:00 +14°C° 0 mm 5 m/s 775 mmHg 64%
    15:00 +14°C° 0 mm 5 m/s 775 mmHg 64%
    16:00 +13°C° 0 mm 5 m/s 775 mmHg 66%
    17:00 +12°C° 0 mm 5 m/s 775 mmHg 69%
    18:00 +11°C° 0 mm 4 m/s 776 mmHg 71%
    19:00 +11°C° 0 mm 4 m/s 776 mmHg 72%
    20:00 +10°C° 0 mm 4 m/s 775 mmHg 73%
    21:00 +10°C° 0 mm 4 m/s 775 mmHg 74%
    22:00 +10°C° 0 mm 4 m/s 775 mmHg 72%
    23:00 +9°C° 0 mm 5 m/s 775 mmHg 71%

    23 Outubro, Terça-feira

    Tempo Temperatura Precipitação Vento Pressão Humidade
    00:00 +9°C° 0 mm 5 m/s 774 mmHg 70%
    01:00 +9°C° 0 mm 6 m/s 774 mmHg 72%
    02:00 +9°C° 0 mm 6 m/s 773 mmHg 74%
    03:00 +9°C° 0 mm 7 m/s 772 mmHg 76%
    04:00 +10°C° 0.1 mm 7 m/s 772 mmHg 77%
    05:00 +10°C° 0.1 mm 8 m/s 771 mmHg 77%
    06:00 +10°C° 0.1 mm 8 m/s 771 mmHg 78%
    07:00 +11°C° 0.2 mm 9 m/s 770 mmHg 77%
    08:00 +12°C° 0.2 mm 9 m/s 770 mmHg 77%
    09:00 +12°C° 0.2 mm 10 m/s 770 mmHg 76%
    10:00 +12°C° 0.4 mm 10 m/s 770 mmHg 75%
    11:00 +12°C° 0.4 mm 10 m/s 770 mmHg 74%
    12:00 +13°C° 0.4 mm 10 m/s 770 mmHg 73%
    13:00 +13°C° 0.2 mm 10 m/s 769 mmHg 72%
    14:00 +13°C° 0.2 mm 10 m/s 769 mmHg 70%
    15:00 +12°C° 0.2 mm 9 m/s 769 mmHg 69%
    16:00 +12°C° 0.1 mm 9 m/s 770 mmHg 69%
    17:00 +11°C° 0.1 mm 8 m/s 770 mmHg 69%
    18:00 +10°C° 0.1 mm 8 m/s 770 mmHg 70%
    19:00 +10°C° 0 mm 8 m/s 770 mmHg 69%
    20:00 +10°C° 0 mm 7 m/s 771 mmHg 68%
    21:00 +9°C° 0 mm 7 m/s 771 mmHg 68%
    22:00 +9°C° 0 mm 6 m/s 771 mmHg 69%
    23:00 +9°C° 0 mm 6 m/s 771 mmHg 70%
    Mostrar mais